Regional Weather Roundup
Issued by NWS

Home | Current Version | Previous Version | Text Only | Print | Product List | Glossary Off
Versions: 1 2 3 4 5 6 7 8 9 10 11 12 13 14 15 16 17 18 19 20 21 22 23 24 25 26 27 28 29 30 31 32 33 34 35 36 37 38 39 40 41 42 43 44 45 46 47 48 49 50

227
ASUS43 KLSX 171257
RWRMO

WEATHER SUMMARY FOR MISSOURI
NATIONAL WEATHER SERVICE SPRINGFIELD MO
700 AM CST WED JAN 17 2018

NOTE: "FAIR" INDICATES FEW OR NO CLOUDS BELOW 12,000 FEET WITH NO
       SIGNIFICANT WEATHER AND/OR OBSTRUCTIONS TO VISIBILITY.
       CURRENT SKY AND/OR WEATHER CONDITIONS ARE NOT AVAILABLE FOR
       CHILLICOTHE AND FARMINGTON.

MOZ001>031-035>038-043-044-053-054-171400-
...NORTHERN AND WESTERN MISSOURI...

CITY           SKY/WX    TMP DP  RH WIND       PRES   REMARKS
KANSAS CTY INT CLOUDY    -1  -4  87 SW6       30.64R WCI -13
LEE`S SUMMIT   CLOUDY     2  -1  88 SW6       30.65S WCI  -9
ST JOSEPH        N/A    N/A N/A N/A MISG      30.66S
CHILLICOTHE      N/A     -4  -9  79 CALM      30.67F

$$
MOZ066>068-077>081-088>096-101>105-171400-
...SOUTHWEST MISSOURI...

CITY           SKY/WX    TMP DP  RH WIND       PRES   REMARKS
SPRINGFIELD    CLOUDY    -6 -11  79 S3        30.64S
JOPLIN         CLOUDY    -4  -7  87 SW5       30.70S WCI -15
BRANSON        CLOUDY     1   0  92 SW3       30.67R

$$
MOZ032>034-039>042-045>050-055>058-069>072-171400-
...CENTRAL MISSOURI...

CITY           SKY/WX    TMP DP  RH WIND       PRES   REMARKS
COLUMBIA       NOT AVBL
JEFFERSON CITY CLOUDY    -1  -6  79 CALM      30.71S
ROLLA          CLOUDY    -3  -5  90 SW5       30.63F WCI -13
SEDALIA        CLOUDY     0  -2  91 SW6       30.68R WCI -12
WARRENSBURG    CLOUDY    -6  -9  84 S3        30.69S

$$
MOZ051-052-059>065-171400-
...EAST CENTRAL MISSOURI...

CITY           SKY/WX    TMP DP  RH WIND       PRES   REMARKS
ST LOUIS INTL  CLOUDY     3  -1  83 W5        30.67S WCI  -6

$$
MOZ072>076-082>087-097>100-106>115-171400-
...SOUTH CENTRAL AND SOUTHEAST MISSOURI...

CITY           SKY/WX    TMP DP  RH WIND       PRES   REMARKS
CAPE GIRARDEAU FAIR       9   2  73 NW5       30.70S WCI   1
POPLAR BLUFF   FAIR     N/A N/A N/A CALM      30.73R
WEST PLAINS    CLOUDY    -3  -8  79 W5        30.64S WCI -13

$$



USA.gov is the U.S. government's official web portal to all federal, state and local government web resources and services.